Tracking 28790 objects as of 19-Apr-2024
HD Live streaming from Space Station
objects crossing your sky now

COSMOS 374 DEB

Track COSMOS 374 DEB now!
10-day predictions


NORAD ID: 4699
Int'l Code: 1970-089R
Perigee: 468.7 km
Apogee: 1,074.3 km
Inclination: 62.9 °
Period: 100.1 minutes
Semi major axis: 7142 km
RCS: 0.0644 m2 (small)
Launch date: October 23, 1970
Source: Commonwealth of Independent States (former USSR) (CIS)
Launch site: TYURATAM MISSILE AND SPACE COMPLEX (TTMTR)

Note: This is SATELLITE DEBRIS
Your satellite tracking list
Your tracking list is empty




NASA's NSSDC Master Catalog

Two Line Element Set (TLE):
1 04699U 70089R   24109.95484466  .00027986  00000-0  31607-2 0  9995
2 04699  62.9237  62.9701 0423955 108.2744 256.4932 14.38228857596344
Source of the keplerian elements: AFSPC